Regional Weather Roundup
Issued by NWS

Home | Current Version | Previous Version | Graphics & Text | Print | Product List | Glossary On
Versions: 1 2 3 4 5 6 7 8 9 10 11 12 13 14 15 16 17 18 19 20 21 22 23 24 25 26 27 28 29 30 31 32 33 34 35 36 37 38 39 40 41 42 43 44 45 46 47 48 49 50
858
ASUS45 KTFX 092110
RWRMT
MONTANA REGIONAL WEATHER ROUNDUP
NATIONAL WEATHER SERVICE GREAT FALLS MT
200 PM MST FRI DEC 09 2016

NOTE: "FAIR" INDICATES FEW OR NO CLOUDS BELOW 12000 FEET WITH NO
SIGNIFICANT WEATHER AND/OR OBSTRUCTIONS TO VISIBILITY.

MTZ001>007-043-092200-
WEST OF THE DIVIDE

CITY           SKY/WX    TMP DP  RH WIND       PRES   REMARKS
KALISPELL      LGT SNOW   8   1  73 N12       30.16F WCI  -7
MISSOULA       CLOUDY    17   8  67 CALM      30.11F
BUTTE          CLOUDY    16   7  67 CALM      29.96F
MULLAN PASS    LGT SNOW  16  14  92 VRB3      29.87F FOG
ANACONDA         N/A     10   3  72 N9        29.99F WCI  -2
DEER LODGE       N/A     10   3  72 CALM      30.05R
EUREKA           N/A      9   1  72 CALM      30.24F
HAMILTON         N/A     18  10  73 CALM      30.07F
LIBBY            N/A     12   5  73 NW3       30.18F
PLAINS           N/A     16   6  64 CALM      30.17F
RONAN            N/A     14   8  77 N8        30.14S WCI   3
$$

MTZ008-052>055-092200-
SOUTHWEST MONTANA

CITY           SKY/WX    TMP DP  RH WIND       PRES   REMARKS
BOZEMAN        CLOUDY     7   0  73 NW3       30.08F
DILLON         CLOUDY    12   4  70 CALM      30.00F
W YELLOWSTONE  CLOUDY    23  21  93 SW9G18    30.02F WCI  13
ENNIS          CLOUDY    14   9  79 CALM      30.02F
THREE FORKS      N/A      8 -47   6 CALM      30.08F
TWIN BRIDGES     N/A      9  -2  61 NW2       30.01F
$$

MTZ009-010-012-014-046-048-049-054-092200-
EAST SLOPES AND CENTRAL MONTANA

CITY           SKY/WX    TMP DP  RH WIND       PRES   REMARKS
CUT BANK       CLOUDY    -1  -7  75 SE8       30.16F WCI -15
GREAT FALLS    SUNNY      2  -7  66 E5        30.18F
MALMSTROM AFB  CLOUDY     2  -4  75 E6        30.21F WCI -10
HELENA         CLOUDY     7  -5  57 CALM      30.14F
AUGUSTA          N/A     -3  -8  79 SE5       30.09F
BOWMANS CRNR     N/A     -4  -7  86 NE6       30.08F WCI -16
CHOTEAU          N/A      1  -8  66 MISG      30.16F
CONRAD           N/A      1  -5  76 NE3       30.18F
FAIRFIELD        N/A     -1  -8  72 E5        30.14F
POWER          FLURRIES   0  -6  75 E5        30.16F
RAYNESFORD     FLURRIES   1  -6  71 SE10      30.14F WCI -15
ULM              N/A      1  -7  69 N9        30.18F WCI -15
$$

MTZ011-013-016-021-045-047-050-051-092200-
NORTH CENTRAL MONTANA

CITY           SKY/WX    TMP DP  RH WIND       PRES   REMARKS
HAVRE          MOSUNNY    7  -2  66 E9        30.33F WCI  -7
LEWISTOWN      FLURRIES   2  -4  76 E9        30.14F WCI -13
N BAR RANCH    LGT SNOW   1  -4  78 E10       30.15S WCI -14
CHINOOK          N/A      7  -2  66 E10       30.36F WCI  -8
DENTON         FLURRIES   3  -2  81 E14       30.17F WCI -15
GEYSER         FLURRIES   0  -6  75 E6        30.15F WCI -11
GRASS RANGE    LGT SNOW   3  -1  84 NE7       30.17F WCI -10
JUDITH GAP     FLURRIES   3  -2  81 S18       30.10F WCI -18
ROY            FLURRIES   2  -1  88 MISG      30.21F
STANFORD       FLURRIES  -2  -6  83 E3        30.11F
WINIFRED       FLURRIES   2  -1  88 MISG      30.19F
$$

MTZ017>020-022>027-061-062-092200-
NORTHEAST MONTANA

CITY           SKY/WX    TMP DP  RH WIND       PRES   REMARKS
GLASGOW        SUNNY      0  -6  76 SE9       30.44F WCI -15
JORDAN           N/A      3  -2  79 SE9       30.38F WCI -12
SIDNEY         SUNNY      2  -8  63 NE5       30.53F
WOLF POINT     MOSUNNY    2  -7  66 SE7       30.52F WCI -11
PLENTYWOOD       N/A     -2  -9  71 CALM      30.48F
POPLAR           N/A     -2  -9  71 E7        30.53S WCI -16
SCOBEY           N/A      0 -13  54 CALM      30.40F
$$

MTZ028>42-056>058-092200-
SOUTHCENTRAL AND SOUTHEAST MONTANA

CITY           SKY/WX    TMP DP  RH WIND       PRES   REMARKS
BAKER          CLOUDY     0  -5  79 E9        30.38F WCI -15
BILLINGS       PTSUNNY    6   0  76 VRB5      30.22F
LIVINGSTON     CLOUDY     7  -1  70 NE7       30.08F WCI  -5
MILES CITY     LGT SNOW   3  -3  76 NE9       30.38F WCI -12
BIG TIMBER     MOSUNNY    5  -2  72 E6        30.13F WCI  -6
EKALAKA          N/A      3  -6  66 N2        30.23F
FORSYTH          N/A      3  -2  78 E7        30.36S WCI  -9
HARLOWTON        N/A      2  -2  83 E6        30.14F WCI  -9
LAUREL           N/A      7  -5  57 N2        30.18F
$$

REGIONAL REPORTS...DAKOTAS

CITY           SKY/WX    TMP DP  RH WIND       PRES   REMARKS
WILLISTON      MOSUNNY   -2 -11  65 NE7       30.54F WCI -15
MINOT          SUNNY     -8 -14  74 W10       30.54R WCI -26
BEACH            N/A     -2  -6  84 NE6       30.44F WCI -14
CROSBY           N/A     -8 -11  84 NW7       30.56S WCI -22
TIOGA            N/A     -8 -11  84 NW6       30.50F WCI -21
WATFORD CITY     N/A     -4  -9  77 CALM      30.52S
BISMARCK       MOSUNNY    0  -7  72 NW9       30.55R WCI -15
GRAND FORKS    MOSUNNY    2  -8  63 NW8       30.57S WCI -12
FARGO          MOSUNNY    6  -2  69 NW10      30.56S WCI  -9
BUFFALO SD       N/A      5  -3  69 E8        30.28F WCI  -8
RAPID CITY     FLURRIES   3  -3  76 N7        30.34S WCI  -9
$$

REGIONAL REPORTS...WYOMING/IDAHO/WASHINGTON

CITY           SKY/WX    TMP DP  RH WIND       PRES   REMARKS
GILLETTE       SUNNY      9   1  70 N3        30.17S
SHERIDAN       CLOUDY    10   0  63 CALM      30.17F
BUFFALO WY     CLOUDY     8  -1  66 SE8       30.10F WCI  -4
CODY           CLOUDY    13   1  59 CALM      30.09F
YELLOWSTONE LA   N/A     25  22  88 VRB3      30.00F
IDAHO FALLS    LGT SNOW  23  19  85 NW8       30.11F FOG     WCI  14
SALMON         CLOUDY    18  16  93 CALM      30.08F VSB 3/4
BOISE          CLOUDY    31  28  89 SE3       30.08F FOG
SPOKANE        CLOUDY    19  15  84 NE9       30.05F WCI   8
$$

REGIONAL REPORTS...ALBERTA

CITY           SKY/WX    TMP DP  RH WIND       PRES   REMARKS
EDMONTON       MOSUNNY   -2 -13  60 S10       30.38F WCI -19
CALGARY        CRYSTALS  -6 -13  71 SE14      30.17F WCI -26
LETHBRIDGE     PTSUNNY   -2  -8  78 NE7       30.27F WCI -16
MEDICINE HAT   PTSUNNY    0  -8  71 E7        30.38F WCI -13
WATERTON GATE    N/A     -4 -11  71 NE5         N/A
CARDSTON         N/A     -4 -13  65 N5          N/A
MILK RIVER       N/A      3  -6  66 SE6         N/A  WCI  -8
ONEFOUR          N/A      0  -6  78 E9          N/A  WCI -16
$$

REGIONAL REPORTS...SASKATCHEWAN

CITY           SKY/WX    TMP DP  RH WIND       PRES   REMARKS
SWIFT CURRENT  CLOUDY    -6  -9  84 E6        30.38F WCI -18
REGINA         CRYSTALS  -8 -11  84 NW6       30.53S FOG     WCI -21
SASKATOON      CRYSTALS  -6 -13  71 VRB2      30.56F
CYPRESS HILLS    N/A     -6 -11  77 S7          N/A  WCI -20
VAL MARIE        N/A      1  -6  71 S8          N/A  WCI -12
ASSINIBOIA       N/A     -2 -11  65 SE9         N/A  WCI -18
$$




USA.gov is the U.S. government's official web portal to all federal, state and local government web resources and services.